[[{"header":{"parameterUnit":"m.s-1","parameterCategory":1,"la1":30.2991,"la2":30.254,"lo1":-89.0895,"lo2":-89.0444,"dy":0.0017,"dx":0.0017,"nx":28,"ny":28,"refTime":"2023-07-29T09:00:00:Z","depth":0,"parameterNumber":2,"parameterNumberName":"U-component_of_WINDS"},"data":[0,0,0,0,0,0,0,0,0,0,0,0,0,0,0,0,0,0,0,0,0,0,0,0,0,0,0,0,0,0,0,0,0,0,0,0,0,0,0,0,0,0,0,0,0,0,0,0,0,0,0,0,0,0,0,0,0,0,1.7041,1.7043,0,1.7175,1.7176,1.7178,1.7161,1.7158,1.7156,1.7154,1.7298,1.7304,1.731,0,0,0,0,0,0,0,0,0,0,0,0,0,1.6779,1.6784,1.7041,1.7043,1.7044,1.7175,1.7176,1.7178,1.7161,1.7158,1.7156,1.7153,1.7296,1.7303,1.731,0,0,0,0,0,0,0,0,0,0,0,0,0,1.6901,1.6786,1.7041,1.7051,1.7054,1.7174,1.7176,1.7179,1.7161,1.7158,1.7155,1.7152,1.7294,1.7303,1.7311,1.7432,0,0,1.7338,1.7342,0,0,0,0,0,0,0,0,1.6894,1.6911,1.7048,1.7051,1.7054,1.7147,1.7137,1.7264,1.7162,1.7121,1.7154,1.715,1.7251,1.7263,1.7296,1.7439,1.7445,1.7339,1.7345,1.7348,1.7351,0,0,0,0,0,0,0,1.6886,1.6905,1.7094,1.705,1.7054,1.7052,1.7066,1.7161,1.7203,1.7124,1.7123,1.7139,1.7252,1.7288,1.7299,1.7447,1.7339,1.7347,1.7352,1.7356,1.7701,1.7704,0,0,0,0,0,0,1.6874,1.6898,1.709,1.7098,1.6964,1.7059,1.7075,1.7121,1.7202,1.7211,1.7141,1.7137,1.7274,1.7289,1.7304,1.7454,1.7348,1.7357,1.7362,1.7697,1.7701,1.7706,0,0,0,0,0,0,1.6868,1.6891,1.7085,1.6998,1.7022,1.7067,1.7119,1.7125,1.716,1.7215,1.7223,1.7169,1.7272,1.7292,1.7401,1.7459,1.7361,1.7369,1.7692,1.7698,1.7703,1.7754,0,0,0,0,0,0,1.686,1.6889,1.6933,1.6999,1.7027,1.7177,1.7123,1.713,1.7175,1.7171,1.7243,1.7252,1.7271,1.7388,1.741,1.747,1.7376,1.7687,1.7695,1.7702,1.7747,1.776,1.7772,0,0,0,0,0,1.6851,1.6943,1.6936,1.6959,1.7083,1.718,1.7196,1.7214,1.7179,1.7226,1.7262,1.725,1.7448,1.7399,1.7424,1.7487,1.7684,1.7693,1.7701,1.7742,1.7758,1.7771,0,0,0,0,0,0,1.6885,1.6952,1.6944,1.7059,1.7114,1.7177,1.7236,1.723,1.7297,1.7291,1.7312,1.7329,1.744,1.7474,1.7418,1.761,1.7562,1.7576,1.7584,1.76,1.7612,1.7603,1.7383,0,0,0,0,0,1.6906,1.6976,1.7031,1.7128,1.7155,1.7191,1.7234,1.7242,1.7301,1.7325,1.7368,1.7427,1.7503,1.7553,1.7625,1.7751,1.7769,1.7807,1.7819,1.7829,1.7842,1.7915,1.7933,1.7734,1.7734,1.7734,0,0,1.695,1.6995,1.7038,1.7136,1.7179,1.7255,1.7211,1.7292,1.735,1.7338,1.7444,1.7478,1.7545,1.7664,1.7718,1.7696,1.79,1.784,1.7847,1.7855,1.7925,1.7944,1.7961,1.774,1.7739,1.7738,0,0,1.7069,1.7108,1.7195,1.7239,1.7304,1.7328,1.7348,1.7412,1.7434,1.754,1.7533,1.7603,1.7732,1.7782,1.7824,1.7963,1.7957,1.7986,1.8053,1.8123,1.8139,1.8153,1.8207,1.8225,1.7998,1.7999,1.7999,0,1.7117,1.7228,1.7241,1.7324,1.7369,1.7358,1.7448,1.7491,1.7578,1.761,1.7583,1.7746,1.7791,1.7923,1.7957,1.799,1.8018,1.798,1.8135,1.8149,1.8163,1.8214,1.8234,1.8002,1.8002,1.8001,1.8001,0,1.7285,1.7363,1.7425,1.7507,1.7559,1.7645,1.7673,1.7724,1.7728,1.7755,1.7866,1.7918,1.8003,1.8034,1.8039,1.8168,1.8152,1.813,1.8082,1.8185,1.8234,1.8254,1.8007,1.8006,1.8005,1.8004,0,0,1.7432,1.752,1.7543,1.7582,1.7653,1.7715,1.7801,1.7882,1.7927,1.7987,1.8063,1.8173,1.8153,1.8201,1.8212,1.8273,1.8385,1.8243,1.8245,1.8271,1.8535,1.8554,1.8576,1.8379,1.8383,1.8386,1.853,0,1.7562,1.7713,1.7727,1.7864,1.7938,1.793,1.8006,1.806,1.8087,1.8156,1.8187,1.8267,1.8232,1.8261,1.8321,1.8358,1.8439,1.8348,1.8454,1.8458,1.8441,1.8601,1.8622,1.8755,1.8549,1.8552,1.8554,0,1.7734,1.7798,1.7941,1.8004,1.8036,1.8104,1.8181,1.8245,1.8307,1.8323,1.8377,1.838,1.8472,1.8418,1.8549,1.8487,1.8531,1.8556,1.8562,1.8576,1.8515,1.8623,1.8798,1.882,1.8584,1.8582,1.8579,0,1.7832,1.7953,1.8056,1.8088,1.8164,1.8212,1.8246,1.8305,1.8353,1.842,1.8453,1.853,1.8574,1.8636,1.8661,1.8619,1.8792,1.8739,1.8811,1.8811,1.8851,1.8849,1.904,1.8873,1.8873,1.8872,1.8872,0,1.7977,1.8067,1.8101,1.8165,1.8266,1.8282,1.8382,1.8414,1.8466,1.8539,1.8535,1.8604,1.8631,1.8704,1.8724,1.8832,1.8851,1.8869,1.8874,1.8872,1.887,1.8904,1.8897,1.8878,1.8877,1.8875,1.8875,0,1.8105,1.8131,1.8243,1.8305,1.8322,1.8395,1.8449,1.8512,1.8538,1.8629,1.8652,1.8694,1.8781,1.8811,1.8916,1.893,1.9056,1.9051,1.9035,1.9037,1.9109,1.9103,1.9331,1.9364,1.9172,1.9174,1.9175,0,1.8199,1.8267,1.8336,1.8383,1.8418,1.8494,1.8543,1.8562,1.8614,1.869,1.8745,1.883,1.89,1.9039,1.9081,1.9163,1.9162,1.9236,1.9175,1.9171,1.9169,1.9166,1.9175,1.9249,1.9251,1.9253,1.9254,0,1.8363,1.8373,1.8442,1.8517,1.8575,1.8635,1.8694,1.8733,1.8761,1.882,1.8907,1.8961,1.9068,1.9155,1.9238,1.9276,1.9272,1.9272,1.9295,1.9295,1.9284,1.9295,1.907,1.9268,1.9267,1.9266,1.9265,1.9265,1.848,1.8541,1.86,1.8678,1.8723,1.8778,1.8841,1.8875,1.8947,1.9035,1.9041,1.9137,1.92,1.9311,1.9353,1.943,1.941,1.944,1.9449,1.9457,1.9465,1.9268,1.9444,1.9444,1.9444,1.9443,1.9443,0,1.8648,1.8684,1.8756,1.8837,1.89,1.8886,1.895,1.9005,1.9088,1.9145,1.9213,1.9316,1.9399,1.9447,1.9532,1.9585,1.9585,1.9607,1.9606,1.9615,1.9476,1.945,1.9605,1.9605,1.9605,1.9605,1.9605,1.9605,1.8743,1.8847,1.8864,1.8992,1.9029,1.912,1.9159,1.9211,1.9257,1.937,1.9439,1.9469,1.9524,1.9613,1.969,1.9702,1.9736,1.976,1.9771,1.9641,1.9625,1.9609,1.9585,1.9766,1.9766,1.9905,1.9906,1.9907]},{"header":{"parameterUnit":"m.s-1","parameterCategory":1,"la1":30.2991,"la2":30.254,"lo1":-89.0895,"lo2":-89.0444,"dy":0.0017,"dx":0.0017,"nx":28,"ny":28,"refTime":"2023-07-29T09:00:00:Z","depth":0,"parameterNumber":3,"parameterNumberName":"V-component_of_WINDS"},"data":[0,0,0,0,0,0,0,0,0,0,0,0,0,0,0,0,0,0,0,0,0,0,0,0,0,0,0,0,0,0,0,0,0,0,0,0,0,0,0,0,0,0,0,0,0,0,0,0,0,0,0,0,0,0,0,0,0,0,0.9897,0.9898,0,0.9951,0.9951,0.9952,0.9937,0.9936,0.9934,0.9933,0.9988,0.999,0.9993,0,0,0,0,0,0,0,0,0,0,0,0,0,0.9779,0.9781,0.9897,0.9898,0.9898,0.9951,0.9951,0.9952,0.9937,0.9936,0.9934,0.9933,0.9987,0.999,0.9993,0,0,0,0,0,0,0,0,0,0,0,0,0,0.9831,0.9782,0.9897,0.9897,0.9898,0.995,0.9951,0.9952,0.9937,0.9935,0.9934,0.9932,0.9986,0.999,0.9994,1.0049,0,0,1.0005,1.0006,0,0,0,0,0,0,0,0,0.9828,0.9835,0.9896,0.9897,0.9898,0.9935,0.9929,0.9985,0.9938,0.9922,0.9933,0.9931,0.9972,0.9977,0.999,1.0052,1.0054,1.0005,1.0007,1.0009,1.001,0,0,0,0,0,0,0,0.9824,0.9833,0.9918,0.9897,0.9898,0.9893,0.9899,0.994,0.9956,0.9923,0.9922,0.9929,0.9972,0.9987,0.9991,1.0055,1.0005,1.0008,1.0011,1.0012,1.016,1.0161,0,0,0,0,0,0,0.982,0.983,0.9917,0.992,0.9858,0.9897,0.9903,0.9925,0.9955,0.9958,0.993,0.9928,0.9981,0.9987,0.9993,1.0057,1.0009,1.0012,1.0015,1.0158,1.016,1.0162,0,0,0,0,0,0,0.9818,0.9828,0.9914,0.9875,0.9885,0.9901,0.9925,0.9927,0.9942,0.996,0.9963,0.9943,0.998,0.9988,1.0034,1.0059,1.0014,1.0018,1.0156,1.0159,1.0161,1.0187,0,0,0,0,0,0,0.9815,0.9827,0.985,0.9875,0.9887,0.9956,0.9927,0.9929,0.9948,0.9946,0.9973,0.9975,0.9979,1.0029,1.0038,1.0063,1.002,1.0154,1.0157,1.016,1.0184,1.019,1.0195,0,0,0,0,0,0.981,0.9856,0.9851,0.9862,0.9916,0.9957,0.9964,0.9968,0.995,0.9972,0.9983,0.9975,1.0055,1.0034,1.0044,1.007,1.0152,1.0156,1.016,1.0181,1.0189,1.0195,0,0,0,0,0,0,0.9835,0.986,0.9854,0.991,0.9931,0.9955,0.9982,0.9976,1.0003,1.0,1.0003,1.0009,1.0056,1.0068,1.0044,1.0123,1.0101,1.0107,1.0114,1.0121,1.0126,1.0122,1.0024,0,0,0,0,0,0.9846,0.9878,0.9898,0.9945,0.9956,0.9967,0.9986,0.9986,1.0008,1.0018,1.0033,1.0054,1.0083,1.0103,1.0132,1.0186,1.0189,1.0209,1.0214,1.0219,1.0224,1.0249,1.0256,1.0174,1.0174,1.0174,0,0,0.9871,0.9888,0.9909,0.995,0.9967,0.9998,0.9975,1.0011,1.0033,1.0023,1.0066,1.0078,1.0102,1.0151,1.0174,1.0163,1.0247,1.0224,1.0227,1.023,1.0253,1.0261,1.0268,1.0177,1.0177,1.0176,0,0,0.9931,0.9949,0.9988,1.0004,1.0029,1.0036,1.0045,1.0068,1.0075,1.0119,1.011,1.0137,1.0189,1.0205,1.022,1.0282,1.0274,1.0291,1.032,1.0345,1.0351,1.0357,1.0375,1.0383,1.0296,1.0296,1.0296,0,0.9959,1.0006,1.0009,1.0043,1.006,1.0051,1.0089,1.0105,1.0138,1.0149,1.0137,1.0199,1.0215,1.0265,1.028,1.0294,1.0302,1.0288,1.035,1.0356,1.0361,1.0379,1.0386,1.0298,1.0298,1.0298,1.0297,0,1.0037,1.0069,1.0098,1.0128,1.0148,1.0185,1.0191,1.0211,1.0209,1.0216,1.0258,1.0277,1.0307,1.0319,1.0319,1.0369,1.0361,1.0349,1.0326,1.0371,1.0387,1.0394,1.03,1.03,1.0299,1.0299,0,0,1.0115,1.0143,1.0154,1.0165,1.019,1.0215,1.0249,1.0278,1.0293,1.0316,1.0343,1.0385,1.0373,1.039,1.0391,1.0413,1.0456,1.0398,1.0399,1.0406,1.0507,1.0514,1.0522,1.0451,1.0452,1.0453,1.0504,0,1.0175,1.0235,1.0236,1.0291,1.0319,1.0309,1.0338,1.0356,1.0362,1.0386,1.0394,1.0422,1.0407,1.0416,1.0437,1.0446,1.0476,1.0443,1.0474,1.0475,1.0466,1.0531,1.054,1.0587,1.0511,1.0512,1.0513,0,1.0254,1.0276,1.0332,1.0349,1.0361,1.0387,1.0411,1.0435,1.0453,1.0457,1.0474,1.047,1.0503,1.0479,1.0523,1.05,1.0513,1.0518,1.052,1.0522,1.0495,1.0532,1.0603,1.0609,1.0524,1.0523,1.0522,0,1.03,1.0345,1.0383,1.0394,1.0416,1.0434,1.0443,1.046,1.0476,1.0497,1.0506,1.0531,1.0544,1.0563,1.0565,1.0549,1.0607,1.0585,1.0609,1.0609,1.0621,1.062,1.0692,1.0633,1.0633,1.0633,1.0633,0,1.0366,1.04,1.0404,1.0428,1.0464,1.0465,1.0501,1.0509,1.0524,1.0547,1.0541,1.0563,1.0566,1.0588,1.059,1.0623,1.063,1.0632,1.0632,1.0631,1.0631,1.0638,1.0634,1.0635,1.0634,1.0634,1.0634,0,1.0424,1.0429,1.0469,1.0485,1.049,1.0516,1.0529,1.055,1.0555,1.0585,1.0591,1.0599,1.0625,1.0629,1.066,1.0661,1.07,1.0698,1.0693,1.0692,1.0714,1.0711,1.0792,1.0801,1.0739,1.074,1.074,0,1.0465,1.049,1.0507,1.0522,1.0532,1.0557,1.0571,1.0572,1.0588,1.0608,1.0626,1.0651,1.067,1.0711,1.0719,1.0741,1.0738,1.0765,1.0741,1.0739,1.0735,1.0732,1.0733,1.0769,1.0769,1.077,1.077,0,1.0534,1.0534,1.0556,1.0577,1.0595,1.0612,1.0628,1.0641,1.0643,1.0661,1.0686,1.0701,1.073,1.0753,1.0775,1.0784,1.0776,1.0778,1.0784,1.0782,1.0777,1.0777,1.0703,1.0775,1.0775,1.0775,1.0774,1.0774,1.0583,1.0603,1.0617,1.064,1.0652,1.0666,1.0686,1.0692,1.0713,1.0736,1.0735,1.0762,1.0776,1.0804,1.0814,1.0834,1.0825,1.0835,1.0837,1.0839,1.0839,1.0776,1.0838,1.0838,1.0838,1.0838,1.0838,0,1.0649,1.0657,1.0678,1.0699,1.0717,1.0708,1.0724,1.0739,1.0763,1.0776,1.0795,1.0822,1.0843,1.0852,1.0873,1.0887,1.0884,1.0892,1.089,1.0891,1.0848,1.0839,1.0894,1.0894,1.0894,1.0894,1.0894,1.0894,1.0686,1.0718,1.0719,1.0757,1.0764,1.0789,1.0799,1.0811,1.0821,1.0851,1.0869,1.0874,1.0885,1.0906,1.0924,1.0926,1.0933,1.0942,1.0942,1.0901,1.0895,1.0889,1.0881,1.0944,1.0944,1.0984,1.0984,1.0984]}]]